Weather History for Moorhead, MN

Change the Weather History Date:

Monday, September 10, 2012

  Actual Average (KFAR) Record (KFAR)
Temperature  
Mean Temperature 74 °F 62 °F  
Max Temperature 91 °F 73 °F 97 °F (1998)
Min Temperature 57 °F 50 °F 27 °F (1917)
Degree Days  
Heating Degree Days 0 5  
Month to date heating degree days 40  
Since 1 July heating degree days 90  
Cooling Degree Days 9 2  
Month to date cooling degree days 25  
Year to date cooling degree days 530  
Growing Degree Days 24 (Base 50)    
Moisture  
Dew Point 47 °F    
Average Humidity 45    
Maximum Humidity 67    
Minimum Humidity 22    
Precipitation  
Precipitation 0.00 in 0.10 in 1.34 in (1913)
Month to date precipitation 0.98  
Year to date precipitation 17.04  
Snow  
Snow 0.00 in 0.00 in 0.00 in ()
Month to date snowfall 0.0  
Since 1 July snowfall 0.0  
Since 1 September snowfall 0.0  
Snow Depth -    
Sea Level Pressure  
Sea Level Pressure 29.73 in    
Wind  
Wind Speed 14 mph (South)    
Max Wind Speed 25 mph    
Max Gust Speed 32 mph    
Visibility 10 miles    
Events      
T = Trace of Precipitation, MM = Missing Value Source: NWS Daily Summary

Daily Weather History Graph

Daily Weather History Graph

Search for Another Location

Airport:

Trip Planner

Search our weather history database for the weather conditions in past years. The results will help you decide how hot, cold, wet, or windy it might be!

Date:

Astronomy

Sep. 10, 2012 Rise Set
Actual Time 6:58 AM CDT 7:47 PM CDT
Civil Twilight 6:27 AM CDT 8:18 PM CDT
Nautical Twilight 5:51 AM CDT 8:54 PM CDT
Astronomical Twilight 5:12 AM CDT 9:32 PM CDT
Moon 1:04 AM CDT (9/10) 4:32 PM CDT (9/10)
Length of Visible Light 13h 50m
Length of Day
12h 48m
Waning Crescent, 30% of the Moon is Illuminated
Sep 10
Waning Crescent
Sep 15
New
Sep 22
First Quarter
Sep 29
Full
Oct 8
Last Quarter

Hourly Weather History & Observations

Time (CDT) Temp. Dew Point Humidity Pressure Visibility Wind Dir Wind Speed Gust Speed Precip Events Conditions
12:15 AM 59.0 °F 46.4 °F 63% 29.96 in 10.0 mi SSE 10.4 mph 16.1 mph N/A   Clear
12:35 AM 59.0 °F 46.4 °F 63% 29.95 in 10.0 mi SSE 11.5 mph - N/A   Clear
12:55 AM 59.0 °F 46.4 °F 63% 29.94 in 10.0 mi SSE 12.7 mph - N/A   Clear
1:15 AM 59.0 °F 46.4 °F 63% 29.94 in 10.0 mi SSE 11.5 mph - N/A   Clear
1:34 AM 59.0 °F 46.4 °F 63% 29.93 in 10.0 mi SSE 12.7 mph - N/A   Clear
1:55 AM 57.2 °F 46.4 °F 67% 29.92 in 10.0 mi SSE 12.7 mph - N/A   Clear
2:15 AM 57.2 °F 46.4 °F 67% 29.92 in 10.0 mi SSE 11.5 mph - N/A   Clear
2:34 AM 57.2 °F 46.4 °F 67% 29.91 in 10.0 mi SSE 11.5 mph - N/A   Clear
2:55 AM 57.2 °F 46.4 °F 67% 29.90 in 10.0 mi SSE 10.4 mph - N/A   Clear
3:14 AM 57.2 °F 46.4 °F 67% 29.90 in 10.0 mi SSE 9.2 mph - N/A   Clear
3:35 AM 57.2 °F 46.4 °F 67% 29.89 in 10.0 mi South 10.4 mph - N/A   Clear
3:55 AM 57.2 °F 46.4 °F 67% 29.88 in 10.0 mi SSE 11.5 mph 16.1 mph N/A   Clear
4:14 AM 57.2 °F 46.4 °F 67% 29.88 in 10.0 mi South 12.7 mph - N/A   Clear
4:35 AM 57.2 °F 46.4 °F 67% 29.87 in 10.0 mi SSE 15.0 mph - N/A   Clear
4:55 AM 57.2 °F 46.4 °F 67% 29.86 in 10.0 mi SSE 12.7 mph - N/A   Clear
5:15 AM 57.2 °F 46.4 °F 67% 29.85 in 10.0 mi SSE 11.5 mph 17.3 mph N/A   Clear
5:35 AM 57.2 °F 46.4 °F 67% 29.84 in 10.0 mi SSE 11.5 mph - N/A   Clear
5:55 AM 57.2 °F 46.4 °F 67% 29.83 in 10.0 mi SSE 15.0 mph - N/A   Clear
6:15 AM 57.2 °F 46.4 °F 67% 29.82 in 10.0 mi SSE 15.0 mph - N/A   Clear
6:35 AM 57.2 °F 46.4 °F 67% 29.82 in 10.0 mi SSE 16.1 mph - N/A   Clear
6:55 AM 57.2 °F 46.4 °F 67% 29.81 in 10.0 mi SSE 13.8 mph 21.9 mph N/A   Clear
7:15 AM 57.2 °F 46.4 °F 67% 29.80 in 10.0 mi SSE 16.1 mph - N/A   Clear
7:35 AM 59.0 °F 46.4 °F 63% 29.80 in 10.0 mi SSE 16.1 mph 21.9 mph N/A   Clear
7:54 AM 59.0 °F 46.4 °F 63% 29.80 in 10.0 mi South 18.4 mph 23.0 mph N/A   Clear
8:15 AM 60.8 °F 46.4 °F 59% 29.78 in 10.0 mi South 19.6 mph 24.2 mph N/A   Clear
8:35 AM 62.6 °F 46.4 °F 55% 29.77 in 10.0 mi South 18.4 mph - N/A   Clear
8:54 AM 62.6 °F 46.4 °F 55% 29.76 in 10.0 mi South 16.1 mph 26.5 mph N/A   Clear
9:15 AM 64.4 °F 46.4 °F 52% 29.75 in 10.0 mi South 17.3 mph 23.0 mph N/A   Clear
9:35 AM 66.2 °F 46.4 °F 49% 29.75 in 10.0 mi South 17.3 mph 24.2 mph N/A   Clear
9:55 AM 69.8 °F 46.4 °F 43% 29.75 in 10.0 mi South 13.8 mph 21.9 mph N/A   Clear
10:15 AM 69.8 °F 46.4 °F 43% 29.74 in 10.0 mi South 17.3 mph 27.6 mph N/A   Clear
10:35 AM 71.6 °F 46.4 °F 41% 29.73 in 10.0 mi South 16.1 mph 26.5 mph N/A   Clear
10:55 AM 73.4 °F 46.4 °F 38% 29.72 in 10.0 mi South 20.7 mph 28.8 mph N/A   Clear
11:15 AM 75.2 °F 46.4 °F 36% 29.71 in 10.0 mi South 17.3 mph 25.3 mph N/A   Clear
11:35 AM 75.2 °F 46.4 °F 36% 29.71 in 10.0 mi South 16.1 mph 26.5 mph N/A   Clear
11:55 AM 78.8 °F 46.4 °F 32% 29.70 in 10.0 mi South 17.3 mph 27.6 mph N/A   Clear
12:15 PM 78.8 °F 46.4 °F 32% 29.69 in 10.0 mi South 19.6 mph 28.8 mph N/A   Clear
12:34 PM 80.6 °F 46.4 °F 30% 29.69 in 10.0 mi South 19.6 mph 26.5 mph N/A   Clear
12:55 PM 82.4 °F 46.4 °F 28% 29.67 in 10.0 mi South 17.3 mph 28.8 mph N/A   Clear
1:15 PM 82.4 °F 48.2 °F 30% 29.68 in 10.0 mi South 13.8 mph 23.0 mph N/A   Clear
1:34 PM 84.2 °F 46.4 °F 27% 29.66 in 10.0 mi South 17.3 mph 28.8 mph N/A   Clear
1:55 PM 84.2 °F 46.4 °F 27% 29.65 in 10.0 mi South 21.9 mph 28.8 mph N/A   Clear
2:14 PM 84.2 °F 46.4 °F 27% 29.64 in 10.0 mi South 21.9 mph 31.1 mph N/A   Clear
2:35 PM 86.0 °F 48.2 °F 27% 29.63 in 10.0 mi SSW 21.9 mph 26.5 mph N/A   Clear
2:55 PM 87.8 °F 48.2 °F 25% 29.62 in 10.0 mi South 20.7 mph 31.1 mph N/A   Clear
3:14 PM 87.8 °F 48.2 °F 25% 29.62 in 10.0 mi South 18.4 mph 26.5 mph N/A   Clear
3:35 PM 89.6 °F 48.2 °F 24% 29.61 in 10.0 mi SSW 18.4 mph 24.2 mph N/A   Clear
3:55 PM 89.6 °F 48.2 °F 24% 29.61 in 10.0 mi SSW 17.3 mph 31.1 mph N/A   Clear
4:14 PM 91.4 °F 48.2 °F 23% 29.61 in 10.0 mi SW 25.3 mph 28.8 mph N/A   Clear
4:35 PM 91.4 °F 48.2 °F 23% 29.61 in 10.0 mi SW 24.2 mph 32.2 mph N/A   Clear
4:55 PM 89.6 °F 48.2 °F 24% 29.61 in 10.0 mi SSW 19.6 mph 27.6 mph N/A   Clear
5:14 PM 89.6 °F 46.4 °F 22% 29.61 in 10.0 mi SSW 20.7 mph 28.8 mph N/A   Clear
5:35 PM 89.6 °F 46.4 °F 22% 29.61 in 10.0 mi SSW 18.4 mph 24.2 mph N/A   Clear
5:55 PM 89.6 °F 46.4 °F 22% 29.60 in 10.0 mi SSW 17.3 mph 27.6 mph N/A   Clear
6:14 PM 89.6 °F 46.4 °F 22% 29.60 in 10.0 mi South 12.7 mph 18.4 mph N/A   Clear
6:35 PM 89.6 °F 46.4 °F 22% 29.61 in 10.0 mi SSW 17.3 mph 25.3 mph N/A   Clear
6:54 PM 87.8 °F 48.2 °F 25% 29.60 in 10.0 mi South 10.4 mph - N/A   Clear
7:15 PM 86.0 °F 48.2 °F 27% 29.61 in 10.0 mi SSW 10.4 mph - N/A   Clear
7:35 PM 84.2 °F 48.2 °F 29% 29.60 in 10.0 mi South 8.1 mph - N/A   Clear
7:54 PM 82.4 °F 48.2 °F 30% 29.60 in 10.0 mi South 8.1 mph - N/A   Clear
8:15 PM 80.6 °F 48.2 °F 32% 29.60 in 10.0 mi South 6.9 mph - N/A   Clear
8:35 PM 78.8 °F 48.2 °F 34% 29.61 in 10.0 mi South 9.2 mph - N/A   Clear
8:54 PM 78.8 °F 48.2 °F 34% 29.62 in 10.0 mi South 9.2 mph - N/A   Clear
9:15 PM 78.8 °F 50.0 °F 36% 29.61 in 10.0 mi SSE 9.2 mph - N/A   Clear
9:35 PM 75.2 °F 50.0 °F 41% 29.61 in 10.0 mi SSE 10.4 mph - N/A   Clear
9:54 PM 75.2 °F 50.0 °F 41% 29.62 in 10.0 mi South 11.5 mph - N/A   Clear
10:15 PM 75.2 °F 51.8 °F 44% 29.63 in 10.0 mi South 10.4 mph - N/A   Clear
10:35 PM 75.2 °F 51.8 °F 44% 29.63 in 10.0 mi South 9.2 mph - N/A   Clear
10:55 PM 73.4 °F 50.0 °F 44% 29.63 in 10.0 mi South 10.4 mph - N/A   Clear
11:15 PM 73.4 °F 50.0 °F 44% 29.64 in 10.0 mi South 11.5 mph - N/A   Clear
11:34 PM 73.4 °F 51.8 °F 47% 29.63 in 10.0 mi SSE 11.5 mph - N/A   Clear
11:55 PM 71.6 °F 51.8 °F 50% 29.64 in 10.0 mi SSE 10.4 mph - N/A   Clear